Content
SEND FEEDBACK

Daily
Averages
Monthly
Summary
United States of America

BROOKHAVEN, NEW YORK


Home > North America > United States > New York
Elevation: 21 meters     Latitude: 40 49N     Longitude: 072 51W

WEATHER
 
SELECT A DAY
Number of Records: 156,908;   Date Range: 9/29/99 - 8/12/14
 
SHARE

PRINT THIS DATA

[ ← Previous Day ]
WEATHER ALMANAC - 13 FEBRUARY, 2013
[ Next Day → ]
[ °F ]   °C
Weather ElementAverageHighLow
Temperature1.2 °C6.1 °C (1:56 pm)-3.9 °C (6:56 am)
Dewpoint-4.6 °C-1.1 °C (8:56 am)-7.8 °C (5:56 am)
Humidity67.1 %100 % (7:56 am)43 % (1:56 pm)
Barometer1009.5 hPa1014.2 hPa (2:56 am)1005.4 hPa (9:56 pm)
Wind Speed5.1 km/h16.7 km/h (11:42 pm)
Weather ElementAverage
Visibility14.5 km
Wind DirectionSE (133.1 °)

Weather ElementTotal
Precipitation---
Heating Degree Days17.2 (Base 18.3)
Averaged from 26 records on 13 February, 2013
WEATHER CONDITIONS BREAKOUT
WIND DIRECTION BREAKOUT
WEATHER BY HOUR - 13 FEBRUARY, 2013
[ °F ]   °C
Local TimeTemperatureDewpointHumidityBarometerVisibilityWind DirectionWind SpeedGust SpeedPrecipitationEventsConditions
1:56 AM-1.7 °C-6.1 °C72 %1013.9 hPa16.1 kmWest (260°)7.4 km/hClear
2:56 AM-2.8 °C-6.7 °C75 %1014.2 hPa16.1 kmWest (270°)5.6 km/hClear
3:56 AM-3.3 °C-7.2 °C75 %1013.9 hPa16.1 kmWest (270°)5.6 km/hClear
4:56 AM-2.8 °C-5.6 °C81 %1012.9 hPa16.1 kmNW (320°)7.4 km/hClear
5:56 AM-3.3 °C-7.8 °C71 %1013.2 hPa16.1 kmCalmClear
6:56 AM-3.9 °C-7.2 °C78 %1013.2 hPa16.1 kmCalmClear
7:56 AM-2.2 °C-2.2 °C100 %1013.2 hPa16.1 kmCalmClear
8:56 AM1.7 °C-1.1 °C82 %1012.9 hPa16.1 kmCalmClear
9:56 AM3.9 °C-6.1 °C49 %1012.2 hPa16.1 kmNNW (340°)9.3 km/hClear
10:56 AM3.9 °C-6.1 °C49 %1012.2 hPa16.1 kmSSW (200°)5.6 km/hClear
11:56 AM3.3 °C-5.6 °C53 %1011.9 hPa16.1 kmSouth (180°)11.1 km/hClear
12:56 PM4.4 °C-5.6 °C49 %1010.5 hPa16.1 kmWest (270°)5.6 km/hClear
1:56 PM6.1 °C-5.6 °C43 %1009.1 hPa16.1 kmCalmClear
2:56 PM4.4 °C-4.4 °C53 %1008.8 hPa16.1 kmSouth (170°)13 km/hClear
3:56 PM3.9 °C-4.4 °C55 %1008.8 hPa16.1 kmSouth (170°)7.4 km/hClear
4:56 PM3.9 °C-4.4 °C55 %1007.8 hPa16.1 kmCalmClear
5:56 PM1.7 °C-5 °C61 %1006.8 hPa16.1 kmCalmClear
6:56 PM2.2 °C-3.9 °C64 %1006.4 hPa16.1 kmCalmClear
7:56 PM1.7 °C-3.9 °C67 %1006.4 hPa16.1 kmCalmOvercast
8:56 PM1.7 °C-3.9 °C67 %1006.1 hPa16.1 kmCalmOvercast
9:56 PM1.7 °C-3.3 °C70 %1005.4 hPa16.1 kmCalmOvercast
10:56 PM1.7 °C-3.3 °C70 %1006.4 hPa16.1 kmWNW (300°)7.4 km/hOvercast
11:32 PM2 °C-3 °C70 %1006.1 hPa12.9 kmNorth (350°)9.3 km/h0 mmSnowLight Snow
11:42 PM1 °C-3 °C75 %1006.1 hPa2.9 kmNorth (350°)16.7 km/h0 mmSnowLight Snow
11:52 PM1 °C-2 °C81 %1006.1 hPa2.9 kmVariable9.3 km/h0 mmSnowLight Snow
11:56 PM1.1 °C-2.2 °C79 %1005.8 hPa3.2 kmNorth (10°)11.1 km/h0 mmSnowLight Snow
Hourly data recorded from KHWV, located 0 kilometers away from Brookhaven, New York







STORIES FROM OUR PARTNERS